Hourly Data Report for September 11, 2017

All times are specified in Local Standard Time (LST). Add 1 hour to adjust for Daylight Saving Time where and when it is observed.

SUSSEX FOUR CORNERS
NEW BRUNSWICK

45°44'30.048" N
65°31'44.039" W
47.00 m
8105210
71656
ASF

Download Data

Hourly Data (September 2017)
Hourly Data Report for September 11, 2017
Temp Definition
°C
Dew Point Temp Definition
°C
Rel Hum Definition
%
Wind Dir Definition
10's deg

Wind Spd Definition
km/h
Visibility Definition
km
Stn Press Definition
kPa
Hmdx Definition


Wind Chill Definition


Weather Definition


TIME
00:00 13.0 9.4 78 24 3   101.34     LegendNANA
01:00 12.5 9.3 81 28 9   101.28     LegendNANA
02:00 12.2 9.8 85 28 2   101.27     LegendNANA
03:00 11.4 10.2 92 0 1   101.24     LegendNANA
04:00 11.2 10.6 96 28 5   101.20     LegendNANA
05:00 11.0 10.5 97 26 7   101.15     LegendNANA
06:00 11.1 10.7 97   0   101.19     LegendNANA
07:00 11.2 10.9 98 30 2   101.21     LegendNANA
08:00 11.6 11.3 98 26 4   101.18     LegendNANA
09:00 12.7 11.8 94 28 6   101.16     LegendNANA
10:00 14.9 12.0 83 35 14   101.17     LegendNANA
11:00 16.1 12.2 78 36 20   101.17     LegendNANA
12:00 18.0 12.2 69 36 25   101.11     LegendNANA
13:00 18.3 11.8 66 34 20   101.05     LegendNANA
14:00 19.6 11.9 61 35 22   100.97     LegendNANA
15:00 20.0 11.7 59 1 20   100.94     LegendNANA
16:00 19.5 11.6 60 1 16   100.90     LegendNANA
17:00 19.0 11.8 63 2 10   100.84     LegendNANA
18:00 17.8 11.8 68 34 4   100.86     LegendNANA
19:00 15.5 11.7 78 32 7   100.80     LegendNANA
20:00 13.2 11.6 91 3 11   100.82     LegendNANA
21:00 13.0 11.2 88 5 10   100.85     LegendNANA
22:00 12.1 10.6 91 0 1   100.87     LegendNANA
23:00 11.9 10.6 92 10 1   100.88     LegendNANA

Notes on Data Quality.

Legend

  • E = Estimated
  • M = Missing
  • NA = Not Available
  • ‡ = Partner data that is not subject to review by the National Climate Archives
Date modified: